| time (UTC) | temp F | wind direction | speed MPH | gust MPH | rain 1hr in | rain 24hr in | rain mn in | humidity % | barometer mb |
| 20260831000904 | 103 | 258 | 0.0 | 0.0 | 0.00 | 0.00 | 0.00 | 32 | 1004.8 |
| 20260831000403 | 103 | 237 | 0.0 | 0.0 | 0.00 | 0.00 | 0.00 | 32 | 1004.8 |
| 20260830235903 | 102 | 236 | 0.0 | 0.0 | 0.00 | 0.00 | 0.00 | 32 | 1005.0 |
| 20260830235404 | 102 | 236 | 0.0 | 0.0 | 0.00 | 0.00 | 0.00 | 33 | 1005.0 |
| 20260830233903 | 102 | 236 | 0.0 | 0.0 | 0.00 | 0.00 | 0.00 | 32 | 1005.2 |
| 20260830232904 | 102 | 238 | 0.0 | 0.0 | 0.00 | 0.00 | 0.00 | 32 | 1005.3 |
| 20260830231904 | 102 | 216 | 0.0 | 1.0 | 0.00 | 0.00 | 0.00 | 32 | 1005.4 |
| 20260830231403 | 102 | 225 | 0.0 | 0.0 | 0.00 | 0.00 | 0.00 | 32 | 1005.5 |
| 20260830230904 | 102 | 346 | 0.0 | 0.0 | 0.00 | 0.00 | 0.00 | 32 | 1005.5 |
| 20260830230403 | 102 | 346 | 0.0 | 0.0 | 0.00 | 0.00 | 0.00 | 32 | 1005.6 |
| 20260830225904 | 102 | 346 | 0.0 | 0.0 | 0.00 | 0.00 | 0.00 | 32 | 1005.6 |
| 20260830225404 | 102 | 346 | 0.0 | 0.0 | 0.00 | 0.00 | 0.00 | 32 | 1005.7 |
| 20260830224903 | 102 | 346 | 0.0 | 0.0 | 0.00 | 0.00 | 0.00 | 31 | 1005.7 |
| 20260830223404 | 103 | 254 | 0.0 | 0.0 | 0.00 | 0.00 | 0.00 | 31 | 1005.8 |
| 20260830222404 | 103 | 252 | 0.0 | 0.0 | 0.00 | 0.00 | 0.00 | 31 | 1006.0 |
| 20260830221904 | 103 | 252 | 0.0 | 0.0 | 0.00 | 0.00 | 0.00 | 31 | 1006.1 |
| 20260830221404 | 103 | 300 | 0.0 | 0.0 | 0.00 | 0.00 | 0.00 | 32 | 1006.2 |
| 20260830220903 | 102 | 302 | 0.0 | 0.0 | 0.00 | 0.00 | 0.00 | 32 | 1006.4 |
| 20260830215904 | 102 | 309 | 0.0 | 0.0 | 0.00 | 0.00 | 0.00 | 32 | 1006.6 |
| 20260830215404 | 102 | 309 | 0.0 | 0.0 | 0.00 | 0.00 | 0.00 | 32 | 1006.7 |
| 20260830214403 | 102 | 259 | 0.0 | 1.0 | 0.00 | 0.00 | 0.00 | 32 | 1006.9 |
| 20260830213404 | 102 | 230 | 0.0 | 0.0 | 0.00 | 0.00 | 0.00 | 33 | 1007.2 |
| 20260830211903 | 101 | 257 | 0.0 | 0.0 | 0.00 | 0.00 | 0.00 | 33 | 1007.4 |
| 20260830211403 | 101 | 256 | 0.0 | 0.0 | 0.00 | 0.00 | 0.00 | 33 | 1007.5 |
| 20260830210428 | 102 | 256 | 0.0 | 1.0 | 0.00 | 0.00 | 0.00 | 33 | 1007.7 |
| 20260830205916 | 101 | 217 | 0.0 | 0.0 | 0.00 | 0.00 | 0.00 | 33 | 1007.8 |
| 20260830204905 | 101 | 179 | 0.0 | 0.0 | 0.00 | 0.00 | 0.00 | 32 | 1008.0 |
| 20260830203926 | 101 | 179 | 0.0 | 3.0 | 0.00 | 0.00 | 0.00 | 33 | 1008.2 |
| 20260830203406 | 101 | 179 | 0.0 | 3.0 | 0.00 | 0.00 | 0.00 | 34 | 1008.3 |
| 20260830202906 | 101 | 178 | 0.0 | 9.0 | 0.00 | 0.00 | 0.00 | 34 | 1008.3 |
| 20260830202405 | 101 | 207 | 0.0 | 0.0 | 0.00 | 0.00 | 0.00 | 34 | 1008.4 |
| 20260830201905 | 100 | 207 | 0.0 | 0.0 | 0.00 | 0.00 | 0.00 | 34 | 1008.6 |
| 20260830200905 | 100 | 325 | 0.0 | 0.0 | 0.00 | 0.00 | 0.00 | 35 | 1008.7 |
| 20260830200405 | 99 | 327 | 0.0 | 0.0 | 0.00 | 0.00 | 0.00 | 36 | 1008.8 |
| 20260830195906 | 99 | 328 | 0.0 | 2.0 | 0.00 | 0.00 | 0.00 | 36 | 1008.9 |
| 20260830195405 | 98 | 327 | 0.0 | 0.0 | 0.00 | 0.00 | 0.00 | 36 | 1008.9 |
| 20260830194405 | 99 | 234 | 0.0 | 1.0 | 0.00 | 0.00 | 0.00 | 35 | 1009.0 |
| 20260830193405 | 99 | 233 | 0.0 | 0.0 | 0.00 | 0.00 | 0.00 | 36 | 1009.2 |
| 20260830192905 | 99 | 233 | 0.0 | 0.0 | 0.00 | 0.00 | 0.00 | 36 | 1009.3 |
| 20260830192406 | 98 | 233 | 0.0 | 0.0 | 0.00 | 0.00 | 0.00 | 37 | 1009.4 |
| 20260830191905 | 98 | 233 | 0.0 | 0.0 | 0.00 | 0.00 | 0.00 | 36 | 1009.5 |
| 20260830191405 | 97 | 233 | 0.0 | 0.0 | 0.00 | 0.00 | 0.00 | 37 | 1009.6 |
| 20260830190905 | 98 | 207 | 0.0 | 0.0 | 0.00 | 0.00 | 0.00 | 36 | 1009.6 |
| 20260830190405 | 98 | 207 | 0.0 | 0.0 | 0.00 | 0.00 | 0.00 | 36 | 1009.7 |
| 20260830185905 | 98 | 207 | 0.0 | 0.0 | 0.00 | 0.00 | 0.00 | 36 | 1009.9 |
| 20260830184405 | 98 | 177 | 0.0 | 0.0 | 0.00 | 0.00 | 0.00 | 36 | 1010.2 |
| 20260830183905 | 97 | 177 | 0.0 | 0.0 | 0.00 | 0.00 | 0.00 | 37 | 1010.4 |
| 20260830183405 | 97 | 177 | 0.0 | 0.0 | 0.00 | 0.00 | 0.00 | 36 | 1010.4 |
| 20260830182905 | 97 | 177 | 0.0 | 0.0 | 0.00 | 0.00 | 0.00 | 37 | 1010.4 |
| 20260830182405 | 97 | 177 | 0.0 | 0.0 | 0.00 | 0.00 | 0.00 | 36 | 1010.5 |
| 20260830181905 | 97 | 177 | 0.0 | 0.0 | 0.00 | 0.00 | 0.00 | 36 | 1010.6 |
| 20260830181406 | 97 | 177 | 0.0 | 0.0 | 0.00 | 0.00 | 0.00 | 37 | 1010.7 |
| 20260830180906 | 96 | 177 | 1.0 | 10.0 | 0.00 | 0.00 | 0.00 | 37 | 1010.8 |
| 20260830175406 | 96 | 161 | 0.0 | 3.0 | 0.00 | 0.00 | 0.00 | 38 | 1010.7 |
| 20260830174405 | 95 | 162 | 0.0 | 5.0 | 0.00 | 0.00 | 0.00 | 39 | 1010.8 |
| 20260830173905 | 96 | 157 | 0.0 | 0.0 | 0.00 | 0.00 | 0.00 | 38 | 1010.9 |
| 20260830173405 | 96 | 157 | 0.0 | 7.0 | 0.00 | 0.00 | 0.00 | 38 | 1010.9 |
| 20260830172905 | 95 | 149 | 0.0 | 5.0 | 0.00 | 0.00 | 0.00 | 38 | 1010.8 |
| 20260830172405 | 95 | 149 | 0.0 | 0.0 | 0.00 | 0.00 | 0.00 | 39 | 1010.9 |
| 20260830171405 | 94 | 168 | 0.0 | 0.0 | 0.00 | 0.00 | 0.00 | 40 | 1011.0 |
| 20260830170905 | 94 | 167 | 0.0 | 0.0 | 0.00 | 0.00 | 0.00 | 40 | 1010.9 |
| 20260830165905 | 94 | 169 | 0.0 | 3.0 | 0.00 | 0.00 | 0.00 | 40 | 1010.7 |
| 20260830165405 | 94 | 169 | 0.0 | 0.0 | 0.00 | 0.00 | 0.00 | 40 | 1010.8 |
| 20260830164905 | 94 | 168 | 1.0 | 6.0 | 0.00 | 0.00 | 0.00 | 40 | 1010.7 |
| 20260830164405 | 94 | 169 | 1.0 | 10.0 | 0.00 | 0.00 | 0.00 | 40 | 1010.7 |
| 20260830163905 | 94 | 172 | 1.0 | 7.0 | 0.00 | 0.00 | 0.00 | 41 | 1010.6 |
| 20260830163406 | 94 | 167 | 0.0 | 1.0 | 0.00 | 0.00 | 0.00 | 40 | 1010.6 |
| 20260830162905 | 93 | 151 | 0.0 | 0.0 | 0.00 | 0.00 | 0.00 | 41 | 1010.7 |
| 20260830162405 | 92 | 150 | 0.0 | 0.0 | 0.00 | 0.00 | 0.00 | 42 | 1010.7 |
| 20260830161905 | 92 | 174 | 3.0 | 12.0 | 0.00 | 0.00 | 0.00 | 42 | 1010.6 |
| 20260830161405 | 92 | 178 | 0.0 | 0.0 | 0.00 | 0.00 | 0.00 | 42 | 1010.8 |
| 20260830160906 | 92 | 178 | 0.0 | 3.0 | 0.00 | 0.00 | 0.00 | 42 | 1010.8 |
| 20260830160405 | 91 | 179 | 0.0 | 1.0 | 0.00 | 0.00 | 0.00 | 42 | 1010.8 |
| 20260830155905 | 92 | 189 | 0.0 | 3.0 | 0.00 | 0.00 | 0.00 | 42 | 1010.5 |
| 20260830155405 | 91 | 169 | 0.0 | 8.0 | 0.00 | 0.00 | 0.00 | 43 | 1010.5 |
| 20260830154405 | 91 | 162 | 0.0 | 12.0 | 0.00 | 0.00 | 0.00 | 43 | 1010.5 |
| 20260830153905 | 90 | 153 | 0.0 | 5.0 | 0.00 | 0.00 | 0.00 | 43 | 1010.5 |
| 20260830153406 | 90 | 160 | 1.0 | 10.0 | 0.00 | 0.00 | 0.00 | 43 | 1010.6 |
| 20260830152905 | 90 | 147 | 1.0 | 13.0 | 0.00 | 0.00 | 0.00 | 43 | 1010.6 |
| 20260830151906 | 89 | 162 | 2.0 | 14.0 | 0.00 | 0.00 | 0.00 | 44 | 1010.6 |
| 20260830151405 | 89 | 165 | 2.0 | 12.0 | 0.00 | 0.00 | 0.00 | 45 | 1010.5 |
| 20260830150405 | 89 | 151 | 1.0 | 10.0 | 0.00 | 0.00 | 0.00 | 46 | 1010.6 |
| 20260830145405 | 89 | 137 | 0.0 | 5.0 | 0.00 | 0.00 | 0.00 | 46 | 1010.4 |
| 20260830144905 | 89 | 134 | 0.0 | 9.0 | 0.00 | 0.00 | 0.00 | 46 | 1010.5 |
| 20260830144405 | 88 | 159 | 2.0 | 12.0 | 0.00 | 0.00 | 0.00 | 47 | 1010.6 |
| 20260830143905 | 88 | 177 | 0.0 | 3.0 | 0.00 | 0.00 | 0.00 | 47 | 1010.6 |
| 20260830143405 | 87 | 179 | 0.0 | 0.0 | 0.00 | 0.00 | 0.00 | 49 | 1010.6 |
| 20260830142905 | 87 | 179 | 0.0 | 0.0 | 0.00 | 0.00 | 0.00 | 49 | 1010.5 |
| 20260830142405 | 87 | 179 | 0.0 | 0.0 | 0.00 | 0.00 | 0.00 | 49 | 1010.5 |
| 20260830141905 | 87 | 178 | 0.0 | 0.0 | 0.00 | 0.00 | 0.00 | 49 | 1010.5 |
| 20260830141405 | 87 | 178 | 0.0 | 0.0 | 0.00 | 0.00 | 0.00 | 49 | 1010.4 |
| 20260830140905 | 86 | 178 | 0.0 | 0.0 | 0.00 | 0.00 | 0.00 | 50 | 1010.5 |
| 20260830140405 | 86 | 178 | 0.0 | 0.0 | 0.00 | 0.00 | 0.00 | 51 | 1010.5 |
| 20260830135905 | 85 | 178 | 0.0 | 0.0 | 0.00 | 0.00 | 0.00 | 51 | 1010.5 |
| 20260830135406 | 85 | 179 | 0.0 | 0.0 | 0.00 | 0.00 | 0.00 | 52 | 1010.5 |
| 20260830134405 | 85 | 179 | 0.0 | 0.0 | 0.00 | 0.00 | 0.00 | 51 | 1010.3 |
| 20260830133905 | 85 | 179 | 0.0 | 0.0 | 0.00 | 0.00 | 0.00 | 51 | 1010.2 |
| 20260830133404 | 85 | 179 | 0.0 | 0.0 | 0.00 | 0.00 | 0.00 | 51 | 1010.2 |
| 20260830132405 | 85 | 179 | 0.0 | 0.0 | 0.00 | 0.00 | 0.00 | 51 | 1010.0 |
| 20260830131405 | 85 | 179 | 0.0 | 0.0 | 0.00 | 0.00 | 0.00 | 51 | 1009.9 |
| 20260830130405 | 85 | 179 | 0.0 | 0.0 | 0.00 | 0.00 | 0.00 | 50 | 1009.7 |
| 20260830125905 | 85 | 179 | 0.0 | 0.0 | 0.00 | 0.00 | 0.00 | 50 | 1009.6 |
| 20260830125405 | 85 | 179 | 0.0 | 5.0 | 0.00 | 0.00 | 0.00 | 50 | 1009.5 |
| 20260830124904 | 85 | 140 | 0.0 | 0.0 | 0.00 | 0.00 | 0.00 | 50 | 1009.5 |
| 20260830124405 | 85 | 120 | 0.0 | 0.0 | 0.00 | 0.00 | 0.00 | 50 | 1009.4 |
| 20260830123905 | 85 | 172 | 0.0 | 0.0 | 0.00 | 0.00 | 0.00 | 50 | 1009.4 |
| 20260830123405 | 85 | 126 | 0.0 | 0.0 | 0.00 | 0.00 | 0.00 | 50 | 1009.2 |
| 20260830122905 | 85 | 122 | 0.0 | 0.0 | 0.00 | 0.00 | 0.00 | 50 | 1009.1 |
| 20260830121905 | 86 | 122 | 0.0 | 0.0 | 0.00 | 0.00 | 0.00 | 49 | 1008.9 |
| 20260830121405 | 86 | 122 | 0.0 | 0.0 | 0.00 | 0.00 | 0.00 | 49 | 1008.9 |
| 20260830120905 | 86 | 0 | 0.0 | 0.0 | 0.00 | 0.00 | 0.00 | 49 | 1008.9 |
| 20260830120404 | 86 | 0 | 0.0 | 0.0 | 0.00 | 0.00 | 0.00 | 50 | 1008.9 |
| 20260830115905 | 85 | 0 | 0.0 | 0.0 | 0.00 | 0.00 | 0.00 | 51 | 1008.8 |
| 20260830115405 | 85 | 0 | 0.0 | 0.0 | 0.00 | 0.00 | 0.00 | 52 | 1008.7 |
| 20260830114905 | 85 | 0 | 0.0 | 0.0 | 0.00 | 0.00 | 0.00 | 53 | 1008.8 |
| 20260830114405 | 85 | 0 | 0.0 | 0.0 | 0.00 | 0.00 | 0.00 | 52 | 1008.7 |
| 20260830113905 | 85 | 0 | 0.0 | 0.0 | 0.00 | 0.00 | 0.00 | 51 | 1008.6 |
| 20260830113405 | 86 | 0 | 0.0 | 0.0 | 0.00 | 0.00 | 0.00 | 50 | 1008.5 |
| 20260830112905 | 86 | 0 | 0.0 | 0.0 | 0.00 | 0.00 | 0.00 | 49 | 1008.3 |
| 20260830112405 | 86 | 0 | 0.0 | 0.0 | 0.00 | 0.00 | 0.00 | 49 | 1008.3 |
| 20260830111904 | 86 | 0 | 0.0 | 0.0 | 0.00 | 0.00 | 0.00 | 49 | 1008.3 |
| 20260830111405 | 87 | 0 | 0.0 | 0.0 | 0.00 | 0.00 | 0.00 | 49 | 1008.2 |
| 20260830110904 | 87 | 0 | 0.0 | 0.0 | 0.00 | 0.00 | 0.00 | 48 | 1008.1 |
| 20260830110405 | 87 | 0 | 0.0 | 0.0 | 0.00 | 0.00 | 0.00 | 48 | 1008.1 |
| 20260830105905 | 87 | 0 | 0.0 | 0.0 | 0.00 | 0.00 | 0.00 | 48 | 1008.0 |
| 20260830105405 | 87 | 0 | 0.0 | 0.0 | 0.00 | 0.00 | 0.00 | 47 | 1008.0 |
| 20260830104905 | 87 | 0 | 0.0 | 0.0 | 0.00 | 0.00 | 0.00 | 47 | 1008.1 |
| 20260830103405 | 88 | 0 | 0.0 | 0.0 | 0.00 | 0.00 | 0.00 | 47 | 1008.0 |
| 20260830102905 | 88 | 0 | 0.0 | 0.0 | 0.00 | 0.00 | 0.00 | 46 | 1007.9 |
| 20260830102405 | 88 | 0 | 0.0 | 0.0 | 0.00 | 0.00 | 0.00 | 45 | 1007.9 |
| 20260830101905 | 88 | 0 | 0.0 | 0.0 | 0.00 | 0.00 | 0.00 | 45 | 1007.9 |
| 20260830100905 | 88 | 0 | 0.0 | 0.0 | 0.00 | 0.00 | 0.00 | 45 | 1007.9 |
| 20260830100405 | 87 | 0 | 0.0 | 0.0 | 0.00 | 0.00 | 0.00 | 45 | 1007.9 |
| 20260830095905 | 87 | 0 | 0.0 | 0.0 | 0.00 | 0.00 | 0.00 | 46 | 1007.9 |
| 20260830095405 | 87 | 0 | 0.0 | 0.0 | 0.00 | 0.00 | 0.00 | 46 | 1008.0 |
| 20260830094905 | 87 | 0 | 0.0 | 0.0 | 0.00 | 0.00 | 0.00 | 46 | 1007.9 |
| 20260830094405 | 87 | 0 | 0.0 | 0.0 | 0.00 | 0.00 | 0.00 | 46 | 1007.8 |
| 20260830092904 | 87 | 0 | 0.0 | 0.0 | 0.00 | 0.00 | 0.00 | 47 | 1007.7 |
| 20260830092405 | 87 | 0 | 0.0 | 0.0 | 0.00 | 0.00 | 0.00 | 47 | 1007.6 |
| 20260830091905 | 87 | 0 | 0.0 | 0.0 | 0.00 | 0.00 | 0.00 | 47 | 1007.6 |
| 20260830091405 | 87 | 0 | 0.0 | 0.0 | 0.00 | 0.00 | 0.00 | 47 | 1007.7 |
| 20260830090404 | 87 | 355 | 0.0 | 0.0 | 0.00 | 0.00 | 0.00 | 47 | 1007.8 |
| 20260830085904 | 87 | 355 | 0.0 | 0.0 | 0.00 | 0.00 | 0.00 | 47 | 1007.8 |
| 20260830084904 | 87 | 0 | 0.0 | 3.0 | 0.00 | 0.00 | 0.00 | 47 | 1007.9 |
| 20260830084405 | 88 | 355 | 0.0 | 3.0 | 0.00 | 0.00 | 0.00 | 47 | 1007.9 |
| 20260830083905 | 87 | 4 | 0.0 | 0.0 | 0.00 | 0.00 | 0.00 | 47 | 1007.8 |
| 20260830082905 | 88 | 5 | 1.0 | 10.0 | 0.00 | 0.00 | 0.00 | 46 | 1007.9 |
| 20260830082404 | 89 | 355 | 0.0 | 2.0 | 0.00 | 0.00 | 0.00 | 46 | 1007.8 |
| 20260830081405 | 89 | 5 | 0.0 | 0.0 | 0.00 | 0.00 | 0.00 | 44 | 1007.8 |
| 20260830080405 | 90 | 7 | 0.0 | 3.0 | 0.00 | 0.00 | 0.00 | 42 | 1007.9 |
| 20260830075905 | 89 | 8 | 0.0 | 0.0 | 0.00 | 0.00 | 0.00 | 42 | 1008.1 |
| 20260830075405 | 89 | 8 | 0.0 | 0.0 | 0.00 | 0.00 | 0.00 | 42 | 1008.1 |
| 20260830074904 | 89 | 8 | 0.0 | 1.0 | 0.00 | 0.00 | 0.00 | 42 | 1008.2 |
| 20260830073905 | 89 | 8 | 0.0 | 0.0 | 0.00 | 0.00 | 0.00 | 44 | 1008.2 |
| 20260830073405 | 89 | 8 | 0.0 | 0.0 | 0.00 | 0.00 | 0.00 | 44 | 1008.2 |
| 20260830072905 | 89 | 8 | 0.0 | 1.0 | 0.00 | 0.00 | 0.00 | 44 | 1008.2 |
| 20260830072404 | 89 | 47 | 0.0 | 0.0 | 0.00 | 0.00 | 0.00 | 43 | 1008.3 |
| 20260830071904 | 89 | 47 | 0.0 | 0.0 | 0.00 | 0.00 | 0.00 | 43 | 1008.3 |
| 20260830070905 | 88 | 95 | 0.0 | 0.0 | 0.00 | 0.00 | 0.00 | 45 | 1008.1 |
| 20260830065905 | 88 | 126 | 0.0 | 0.0 | 0.00 | 0.00 | 0.00 | 46 | 1008.0 |
| 20260830065405 | 87 | 180 | 0.0 | 2.0 | 0.00 | 0.00 | 0.00 | 47 | 1007.9 |
| 20260830064905 | 87 | 149 | 0.0 | 0.0 | 0.00 | 0.00 | 0.00 | 47 | 1008.0 |
| 20260830063405 | 87 | 155 | 1.0 | 6.0 | 0.00 | 0.00 | 0.00 | 48 | 1008.2 |
| 20260830062904 | 88 | 148 | 1.0 | 14.0 | 0.00 | 0.00 | 0.00 | 48 | 1008.1 |
| 20260830062404 | 88 | 161 | 1.0 | 6.0 | 0.00 | 0.00 | 0.00 | 46 | 1008.0 |
| 20260830061904 | 89 | 160 | 1.0 | 10.0 | 0.00 | 0.00 | 0.00 | 45 | 1007.9 |
| 20260830061405 | 90 | 175 | 2.0 | 16.0 | 0.00 | 0.00 | 0.00 | 44 | 1007.9 |
| 20260830060905 | 90 | 174 | 1.0 | 9.0 | 0.00 | 0.00 | 0.00 | 43 | 1007.8 |
| 20260830060404 | 91 | 161 | 2.0 | 21.0 | 0.00 | 0.00 | 0.00 | 42 | 1007.8 |
| 20260830055905 | 91 | 165 | 1.0 | 22.0 | 0.00 | 0.00 | 0.00 | 42 | 1007.9 |
| 20260830055405 | 92 | 156 | 1.0 | 12.0 | 0.00 | 0.00 | 0.00 | 41 | 1007.7 |
| 20260830054905 | 92 | 152 | 1.0 | 13.0 | 0.00 | 0.00 | 0.00 | 40 | 1007.8 |
| 20260830054405 | 93 | 156 | 3.0 | 24.0 | 0.00 | 0.00 | 0.00 | 39 | 1007.8 |
| 20260830053905 | 93 | 165 | 1.0 | 13.0 | 0.00 | 0.00 | 0.00 | 38 | 1007.8 |
| 20260830053404 | 94 | 166 | 5.0 | 24.0 | 0.00 | 0.00 | 0.00 | 37 | 1007.7 |
| 20260830052404 | 95 | 164 | 1.0 | 10.0 | 0.00 | 0.00 | 0.00 | 37 | 1007.6 |
| 20260830051904 | 96 | 167 | 3.0 | 17.0 | 0.00 | 0.00 | 0.00 | 37 | 1007.5 |
| 20260830051405 | 97 | 148 | 2.0 | 13.0 | 0.00 | 0.00 | 0.00 | 35 | 1007.3 |
| 20260830050905 | 97 | 171 | 1.0 | 7.0 | 0.00 | 0.00 | 0.00 | 34 | 1007.2 |
| 20260830050405 | 98 | 166 | 1.0 | 6.0 | 0.00 | 0.00 | 0.00 | 33 | 1006.9 |
| 20260830045905 | 98 | 167 | 2.0 | 10.0 | 0.00 | 0.00 | 0.00 | 32 | 1006.9 |
| 20260830045405 | 99 | 193 | 0.0 | 0.0 | 0.00 | 0.00 | 0.00 | 31 | 1006.7 |
| 20260830044904 | 100 | 193 | 0.0 | 0.0 | 0.00 | 0.00 | 0.00 | 31 | 1006.4 |
| 20260830043905 | 100 | 193 | 0.0 | 0.0 | 0.00 | 0.00 | 0.00 | 30 | 1006.2 |
| 20260830043405 | 101 | 193 | 0.0 | 0.0 | 0.00 | 0.00 | 0.00 | 30 | 1006.0 |
| 20260830042905 | 101 | 193 | 0.0 | 0.0 | 0.00 | 0.00 | 0.00 | 29 | 1006.0 |
| 20260830042405 | 101 | 193 | 0.0 | 0.0 | 0.00 | 0.00 | 0.00 | 29 | 1005.9 |
| 20260830041905 | 101 | 194 | 0.0 | 0.0 | 0.00 | 0.00 | 0.00 | 28 | 1005.8 |
| 20260830041405 | 102 | 193 | 0.0 | 0.0 | 0.00 | 0.00 | 0.00 | 28 | 1005.7 |
| 20260830040904 | 102 | 194 | 0.0 | 0.0 | 0.00 | 0.00 | 0.00 | 28 | 1005.6 |
| 20260830040404 | 102 | 194 | 0.0 | 0.0 | 0.00 | 0.00 | 0.00 | 28 | 1005.6 |
| 20260830035905 | 102 | 194 | 0.0 | 0.0 | 0.00 | 0.00 | 0.00 | 28 | 1005.6 |
| 20260830035405 | 102 | 194 | 0.0 | 0.0 | 0.00 | 0.00 | 0.00 | 28 | 1005.5 |
| 20260830034905 | 102 | 194 | 0.0 | 0.0 | 0.00 | 0.00 | 0.00 | 27 | 1005.4 |
| 20260830034405 | 102 | 194 | 0.0 | 0.0 | 0.00 | 0.00 | 0.00 | 27 | 1005.2 |
| 20260830033904 | 102 | 193 | 0.0 | 0.0 | 0.00 | 0.00 | 0.00 | 27 | 1005.1 |
| 20260830033405 | 102 | 193 | 0.0 | 0.0 | 0.00 | 0.00 | 0.00 | 27 | 1005.0 |
| 20260830032904 | 102 | 193 | 0.0 | 0.0 | 0.00 | 0.00 | 0.00 | 27 | 1004.9 |
| 20260830032405 | 103 | 193 | 0.0 | 0.0 | 0.00 | 0.00 | 0.00 | 27 | 1004.8 |
| 20260830031905 | 103 | 194 | 0.0 | 0.0 | 0.00 | 0.00 | 0.00 | 27 | 1004.7 |
| 20260830031404 | 103 | 193 | 0.0 | 0.0 | 0.00 | 0.00 | 0.00 | 27 | 1004.6 |
| 20260830030905 | 103 | 194 | 0.0 | 0.0 | 0.00 | 0.00 | 0.00 | 27 | 1004.6 |
| 20260830030405 | 103 | 194 | 0.0 | 0.0 | 0.00 | 0.00 | 0.00 | 27 | 1004.5 |
| 20260830025905 | 103 | 194 | 0.0 | 0.0 | 0.00 | 0.00 | 0.00 | 27 | 1004.5 |
| 20260830024905 | 103 | 191 | 0.0 | 0.0 | 0.00 | 0.00 | 0.00 | 27 | 1004.3 |
| 20260830024404 | 103 | 192 | 0.0 | 0.0 | 0.00 | 0.00 | 0.00 | 27 | 1004.2 |
| 20260830023905 | 103 | 191 | 0.0 | 0.0 | 0.00 | 0.00 | 0.00 | 27 | 1004.2 |
| 20260830023405 | 103 | 192 | 0.0 | 0.0 | 0.00 | 0.00 | 0.00 | 27 | 1004.1 |
| 20260830022904 | 103 | 192 | 0.0 | 0.0 | 0.00 | 0.00 | 0.00 | 27 | 1004.0 |
| 20260830022405 | 103 | 191 | 0.0 | 0.0 | 0.00 | 0.00 | 0.00 | 26 | 1004.0 |
| 20260830021905 | 103 | 191 | 0.0 | 0.0 | 0.00 | 0.00 | 0.00 | 26 | 1003.9 |
| 20260830021405 | 103 | 188 | 0.0 | 0.0 | 0.00 | 0.00 | 0.00 | 26 | 1003.8 |
| 20260830020904 | 103 | 188 | 0.0 | 0.0 | 0.00 | 0.00 | 0.00 | 27 | 1003.7 |
| 20260830020405 | 104 | 188 | 0.0 | 0.0 | 0.00 | 0.00 | 0.00 | 27 | 1003.7 |
| 20260830015905 | 104 | 188 | 0.0 | 0.0 | 0.00 | 0.00 | 0.00 | 27 | 1004.0 |
| 20260830014905 | 104 | 217 | 0.0 | 0.0 | 0.00 | 0.00 | 0.00 | 27 | 1004.0 |
| 20260830014404 | 104 | 217 | 0.0 | 0.0 | 0.00 | 0.00 | 0.00 | 26 | 1004.0 |
| 20260830013904 | 104 | 214 | 0.0 | 0.0 | 0.00 | 0.00 | 0.00 | 26 | 1004.0 |
| 20260830013405 | 104 | 214 | 0.0 | 0.0 | 0.00 | 0.00 | 0.00 | 26 | 1004.0 |
| 20260830012905 | 105 | 214 | 0.0 | 0.0 | 0.00 | 0.00 | 0.00 | 26 | 1003.9 |
| 20260830012404 | 105 | 214 | 0.0 | 0.0 | 0.00 | 0.00 | 0.00 | 26 | 1003.9 |
| 20260830011404 | 105 | 214 | 0.0 | 0.0 | 0.00 | 0.00 | 0.00 | 26 | 1003.9 |
| 20260830010905 | 105 | 214 | 0.0 | 0.0 | 0.00 | 0.00 | 0.00 | 26 | 1003.9 |
| 20260830010404 | 106 | 210 | 0.0 | 0.0 | 0.00 | 0.00 | 0.00 | 26 | 1003.9 |
| 20260830005905 | 105 | 205 | 0.0 | 0.0 | 0.00 | 0.00 | 0.00 | 26 | 1004.1 |
| 20260830005404 | 106 | 218 | 0.0 | 2.0 | 0.00 | 0.00 | 0.00 | 25 | 1004.1 |
| 20260830004905 | 106 | 216 | 0.0 | 2.0 | 0.00 | 0.00 | 0.00 | 25 | 1004.0 |
| 20260830004405 | 106 | 256 | 0.0 | 0.0 | 0.00 | 0.00 | 0.00 | 25 | 1004.0 |
| 20260830003904 | 106 | 246 | 0.0 | 1.0 | 0.00 | 0.00 | 0.00 | 25 | 1003.9 |
| 20260830003405 | 106 | 238 | 0.0 | 1.0 | 0.00 | 0.00 | 0.00 | 25 | 1003.9 |
| 20260830002905 | 106 | 208 | 0.0 | 3.0 | 0.00 | 0.00 | 0.00 | 25 | 1003.8 |
| 20260830002404 | 106 | 216 | 0.0 | 0.0 | 0.00 | 0.00 | 0.00 | 25 | 1003.8 |
| 20260830001905 | 107 | 216 | 0.0 | 2.0 | 0.00 | 0.00 | 0.00 | 25 | 1003.8 |